Theta_e
343 342 342 342 343 347 347 350 353 352 352 353 350 351 349 349 345 343 346 346 350 349 348 346 344 344 345 347 343 347 345 346 349
337 337 338 337 339 339 340 345 350 352 353 353 351 350 347 340 342 341 342 344 349 348 347 346 344 343 343 345 344 346 343 345 347
338 336 335 336 336 336 336 338 344 349 350 351 351 350 346 337 338 341 341 346 348 346 347 346 345 342 342 343 343 344 347 344 347
341 341 339 338 339 339 338 336 339 344 347 348 350 350 348 336 336 341 339 345 347 346 345 346 346 345 342 343 342 343 343 347 347
346 346 344 344 344 343 341 339 338 338 341 344 346 348 345 335 336 336 338 345 348 347 347 346 346 347 346 343 343 343 343 345 346
338 345 346 347 347 346 344 342 342 341 338 338 338 341 336 335 334 333 339 345 348 348 349 348 347 347 348 347 344 343 345 346 346
329 332 337 341 340 339 339 338 335 330 327 324 327 323 325 327 331 333 341 343 349 349 349 348 349 348 347 347 347 345 346 347 347
318 317 317 318 331 331 331 329 327 322 321 320 319 317 317 321 325 330 338 342 346 350 348 349 348 347 348 348 347 347 346 347 349
306 307 309 308 311 318 322 325 327 327 325 322 318 314 312 313 317 321 329 339 344 349 349 348 347 346 345 346 346 347 348 347 347
301 301 302 302 303 308 311 314 317 319 321 323 322 320 317 313 309 308 319 325 332 341 347 348 348 347 345 344 344 344 346 347 347
298 298 298 298 300 302 302 304 309 311 311 314 315 315 319 318 316 312 310 321 324 330 338 347 347 346 346 345 343 343 343 344 347
296 296 296 296 298 300 299 299 303 303 306 306 309 311 315 316 314 312 312 312 320 325 330 340 346 346 346 346 344 344 342 342 346
296 295 295 296 297 298 297 298 300 300 301 302 303 307 310 310 309 311 314 311 312 321 328 333 340 346 346 345 345 344 341 341 341
295 295 295 295 295 294 296 296 297 298 298 300 302 305 305 305 309 307 310 310 312 314 323 329 336 344 346 345 344 344 341 340 339
295 295 294 294 294 294 293 293 295 296 297 302 302 301 302 303 303 304 307 310 309 308 315 320 325 331 342 344 342 343 341 340 339
295 294 294 294 293 292 292 292 293 293 296 296 295 296 299 298 301 302 306 306 307 307 310 315 320 325 330 338 342 342 341 340 341
296 293 293 293 292 292 291 291 291 292 294 292 293 290 293 296 304 302 303 303 304 307 307 307 313 318 321 327 334 338 340 339 341
294 293 292 292 291 291 290 290 290 290 291 293 292 289 288 292 295 297 299 299 300 303 304 305 308 312 317 321 324 328 336 339 340
293 293 292 291 291 290 291 294 291 289 289 290 295 294 293 291 290 293 297 299 300 299 301 304 307 308 309 315 320 323 328 333 338
293 292 292 291 291 291 291 290 290 290 289 289 289 289 290 292 292 289 292 294 299 300 301 303 305 306 308 310 313 319 322 327 331
Wind_Speed
6 7 7 7 8 9 9 9 9 8 8 6 3 6 8 5 3 2 1 2 5 6 7 7 7 7 8 9 8 8 6 6 8
4 5 6 6 7 8 9 9 9 10 9 9 5 6 7 3 2 2 3 2 4 3 3 4 5 5 5 6 6 6 5 5 6
3 4 4 5 7 8 9 9 9 9 10 10 8 5 6 4 2 2 2 6 2 1 1 1 2 3 3 3 4 4 6 2 3
2 3 4 4 6 8 8 9 9 10 10 10 10 7 7 4 3 2 2 7 4 3 2 3 3 2 2 2 1 2 2 3 5
7 7 6 6 7 7 8 8 9 10 10 11 11 10 6 4 4 2 3 8 8 5 5 5 5 5 4 4 3 2 2 2 3
9 12 11 10 11 10 10 10 10 10 9 10 11 11 3 3 3 3 7 11 12 9 9 7 7 7 7 7 6 5 4 5 5
9 12 15 15 16 13 11 12 12 9 4 4 8 3 5 3 3 3 12 11 13 13 9 8 9 9 9 9 8 9 8 7 7
6 5 6 6 11 5 7 7 4 6 4 4 4 4 4 3 3 5 12 15 13 15 10 10 9 9 9 9 8 10 11 10 10
5 5 6 5 5 6 7 5 7 7 6 4 5 5 4 3 3 5 12 13 15 16 15 12 11 9 11 11 10 9 11 13 12
4 4 4 4 5 5 5 5 5 6 7 6 6 6 5 5 3 3 13 14 15 17 19 18 15 14 13 13 13 13 13 13 16
5 5 5 5 5 4 4 4 5 5 5 6 6 6 5 5 5 4 5 13 14 17 19 21 20 17 16 15 14 15 14 15 16
4 4 4 4 4 6 5 5 4 5 5 5 5 5 6 5 6 5 4 6 12 15 18 21 22 20 19 17 16 15 15 15 13
5 4 4 4 4 4 4 4 4 4 4 4 5 5 5 6 6 5 4 4 5 9 15 17 22 23 21 20 17 16 17 16 15
4 3 3 4 3 4 3 3 1 3 5 5 5 5 5 6 6 7 6 6 5 5 11 16 16 20 23 22 20 18 18 17 16
3 3 4 3 3 4 3 3 2 3 4 5 7 5 5 5 5 5 5 4 5 5 5 5 6 16 20 23 23 20 19 19 18
4 3 4 3 3 4 3 2 3 3 2 3 6 4 7 6 5 3 3 4 4 5 4 3 3 5 16 19 24 24 21 21 19
3 3 4 4 4 5 5 2 3 2 1 2 2 5 5 4 1 2 4 6 3 5 4 5 6 5 3 9 15 21 23 22 20
4 4 4 5 3 4 4 3 2 2 3 3 2 4 4 5 4 4 4 6 3 5 5 6 6 5 4 8 10 14 16 23 21
5 5 5 5 4 5 4 4 3 3 4 2 4 5 4 4 8 2 3 5 8 7 5 5 5 5 4 7 12 15 17 14 22
6 6 6 6 4 5 6 6 6 4 4 4 3 4 4 5 6 10 8 3 4 5 5 5 5 5 5 4 7 15 15 18 17
Wind_Direction
28 25 20 19 12 10 11 10 13 20 17 359 18 40 32 66 102 63 6 93 94 86 82 77 70 56 51 50 68 60 72 85 95
29 19 16 15 8 360 358 357 356 5 7 2 35 59 46 53 95 9 336 287 113 90 93 92 84 79 71 58 57 46 100 120 123
29 21 16 13 7 358 354 349 346 347 353 355 352 47 47 36 314 229 284 274 166 142 164 142 102 97 99 74 60 55 51 120 120
4 1 351 358 1 356 350 349 342 337 338 344 356 5 34 27 355 242 249 274 247 237 186 240 234 192 172 151 117 84 85 75 125
0 7 343 347 344 343 348 346 343 337 333 332 337 343 18 6 352 323 286 278 263 242 221 221 242 241 216 223 216 220 175 149 134
37 35 30 14 0 351 351 352 346 337 345 339 336 336 339 336 318 313 302 296 266 250 243 223 227 241 246 233 228 230 229 192 169
41 34 36 29 30 25 18 8 4 356 346 334 339 332 320 311 294 293 295 295 271 255 241 240 239 236 244 257 247 227 225 228 202
23 31 18 17 17 15 19 13 9 4 357 342 333 322 319 304 294 286 290 291 281 268 236 230 235 238 251 257 258 258 221 223 209
24 28 14 11 2 8 11 8 357 354 350 341 337 338 323 306 298 299 295 286 282 272 264 239 242 242 249 250 251 259 254 227 226
26 19 20 15 1 8 360 5 359 348 348 346 345 340 326 318 312 306 304 296 283 274 267 262 237 236 242 248 248 251 260 268 226
35 16 7 10 6 354 357 348 342 335 338 331 337 325 325 325 324 310 311 311 296 281 270 258 257 247 240 239 247 249 256 262 250
40 25 13 359 354 354 355 347 343 341 332 319 317 313 316 317 316 307 304 310 310 297 283 270 256 250 242 238 240 244 246 254 264
35 25 12 347 356 353 353 343 336 328 324 310 300 298 302 300 297 294 302 298 296 294 288 281 267 254 243 243 241 240 243 247 251
47 23 347 353 356 3 353 326 328 311 313 305 292 285 285 281 292 297 303 298 300 288 288 291 284 268 252 244 244 240 241 242 246
31 10 0 4 358 350 352 310 299 265 289 304 299 286 272 265 266 270 286 297 315 316 297 294 289 287 270 253 249 243 239 238 239
18 2 352 0 353 314 306 292 301 299 312 322 312 283 257 283 259 248 256 288 305 321 333 310 282 286 281 271 251 247 241 236 234
346 346 327 332 330 331 328 332 307 281 328 278 275 327 316 325 347 261 251 259 294 295 295 306 287 274 272 270 275 255 250 246 235
315 310 300 303 298 294 291 282 243 270 295 202 221 323 258 324 295 297 282 287 285 274 279 284 278 280 273 275 274 280 262 245 245
293 287 284 281 283 279 271 260 237 196 249 292 220 233 231 254 301 309 283 277 263 254 259 259 264 280 270 271 266 271 266 266 243
300 297 295 285 274 262 257 269 247 220 215 209 248 243 244 221 239 283 286 285 263 263 256 247 248 254 260 263 267 268 266 257 255